9HGIG KDEN-KLAX

Flight info

Callsign 9HGIG
Flight time N/A
Altitude 40000
Route BAYLR6 TEHRU JASSE Q90 DNERO ANJLL4
Aircraft A346/H-SDE2E3FGHIJ3J4J5M1RWXY/LB1D1

Departure

Time N/A
Airport Denver International Airport (KDEN)

Arrival

Time 2026-05-04 14:28
Airport Los Angeles International Airport (KLAX)
Time Latitude Longitude Altitude Speed Heading
2026-05-04 12:59 37.59769 -109.45915 40042 ft 370 kts 240°
2026-05-04 12:59 37.58169 -109.48473 40043 ft 370 kts 240°
2026-05-04 13:00 37.54996 -109.53533 40047 ft 369 kts 239°
2026-05-04 13:00 37.51800 -109.58616 40032 ft 368 kts 240°
2026-05-04 13:01 37.48612 -109.63687 39998 ft 369 kts 240°
2026-05-04 13:01 37.45434 -109.68735 39969 ft 369 kts 239°
2026-05-04 13:01 37.43832 -109.71273 39828 ft 369 kts 240°
2026-05-04 13:02 37.42236 -109.73802 39850 ft 367 kts 240°
2026-05-04 13:02 37.39057 -109.78836 39855 ft 367 kts 240°
2026-05-04 13:03 37.35898 -109.83833 39858 ft 367 kts 239°
2026-05-04 13:03 37.32708 -109.88858 39872 ft 367 kts 239°
2026-05-04 13:04 37.29513 -109.93887 39850 ft 367 kts 239°
2026-05-04 13:04 37.26338 -109.98880 39853 ft 366 kts 239°
2026-05-04 13:05 37.23147 -110.03891 39850 ft 367 kts 239°
2026-05-04 13:05 37.19951 -110.08903 39851 ft 367 kts 239°
2026-05-04 13:06 37.16767 -110.13888 39849 ft 367 kts 239°
2026-05-04 13:06 37.13575 -110.18885 39851 ft 366 kts 238°
2026-05-04 13:07 37.10921 -110.23023 39833 ft 366 kts 239°
2026-05-04 13:07 37.07207 -110.28815 39843 ft 367 kts 238°
2026-05-04 13:08 37.04538 -110.32970 39839 ft 367 kts 238°
2026-05-04 13:08 37.01331 -110.37955 39837 ft 367 kts 238°
2026-05-04 13:09 36.98121 -110.42938 39831 ft 367 kts 238°
2026-05-04 13:09 36.94932 -110.47886 39818 ft 367 kts 238°
2026-05-04 13:10 36.91718 -110.52866 39826 ft 368 kts 238°
2026-05-04 13:10 36.88500 -110.57840 39826 ft 367 kts 238°
2026-05-04 13:11 36.85274 -110.62820 39826 ft 368 kts 238°
2026-05-04 13:11 36.82046 -110.67794 39828 ft 368 kts 238°
2026-05-04 13:12 36.78830 -110.72743 39808 ft 371 kts 238°
2026-05-04 13:12 36.75560 -110.77769 39824 ft 373 kts 238°
2026-05-04 13:13 36.72281 -110.82800 39816 ft 373 kts 238°
2026-05-04 13:13 36.69012 -110.87808 39820 ft 374 kts 238°
2026-05-04 13:14 36.65720 -110.92840 39820 ft 374 kts 238°
2026-05-04 13:14 36.62425 -110.97870 39819 ft 374 kts 238°
2026-05-04 13:15 36.59127 -111.02899 39825 ft 374 kts 238°
2026-05-04 13:15 36.55826 -111.07925 39824 ft 374 kts 238°
2026-05-04 13:16 36.52551 -111.12903 39828 ft 374 kts 238°
2026-05-04 13:16 36.49248 -111.17920 39828 ft 374 kts 238°
2026-05-04 13:17 36.45944 -111.22928 39827 ft 374 kts 238°
2026-05-04 13:17 36.42636 -111.27934 39825 ft 374 kts 238°
2026-05-04 13:18 36.39351 -111.32899 39832 ft 374 kts 238°
2026-05-04 13:18 36.36042 -111.37892 39831 ft 374 kts 238°
2026-05-04 13:19 36.32729 -111.42886 39822 ft 374 kts 238°
2026-05-04 13:19 36.29442 -111.47832 39825 ft 374 kts 238°
2026-05-04 13:20 36.26120 -111.52825 39821 ft 373 kts 238°
2026-05-04 13:20 36.22802 -111.57805 39833 ft 374 kts 238°
2026-05-04 13:21 36.19462 -111.62810 39837 ft 375 kts 238°
2026-05-04 13:21 36.15930 -111.68093 39804 ft 373 kts 238°
2026-05-04 13:22 36.12616 -111.73094 39791 ft 377 kts 238°
2026-05-04 13:22 36.09574 -111.78277 39854 ft 372 kts 243°
2026-05-04 13:23 36.06898 -111.83742 39927 ft 370 kts 246°
2026-05-04 13:23 36.04580 -111.89492 39952 ft 367 kts 249°
2026-05-04 13:24 36.02649 -111.95293 40006 ft 367 kts 251°
2026-05-04 13:24 36.00736 -112.01184 40047 ft 368 kts 251°
2026-05-04 13:25 35.97898 -112.09972 40085 ft 366 kts 251°
2026-05-04 13:25 35.96024 -112.15790 40076 ft 366 kts 251°
2026-05-04 13:26 35.94070 -112.21848 40080 ft 366 kts 251°
2026-05-04 13:26 35.92178 -112.27705 40063 ft 366 kts 251°
2026-05-04 13:27 35.90283 -112.33561 40024 ft 366 kts 251°
2026-05-04 13:27 35.88390 -112.39401 39988 ft 366 kts 251°
2026-05-04 13:28 35.86490 -112.45253 39946 ft 366 kts 251°
2026-05-04 13:28 35.84609 -112.51046 39869 ft 365 kts 251°
2026-05-04 13:29 35.82709 -112.56870 39870 ft 365 kts 251°
2026-05-04 13:29 35.80807 -112.62692 39865 ft 365 kts 251°
2026-05-04 13:30 35.78906 -112.68500 39863 ft 365 kts 251°
2026-05-04 13:30 35.77015 -112.74270 39858 ft 365 kts 250°
2026-05-04 13:31 35.75112 -112.80071 39869 ft 364 kts 250°
2026-05-04 13:31 35.73207 -112.85859 39844 ft 364 kts 250°
2026-05-04 13:32 35.71300 -112.91637 39845 ft 364 kts 250°
2026-05-04 13:32 35.69403 -112.97384 39843 ft 364 kts 250°
2026-05-04 13:33 35.67485 -113.03177 39837 ft 364 kts 250°
2026-05-04 13:33 35.65566 -113.08964 39822 ft 366 kts 250°
2026-05-04 13:34 35.63653 -113.14733 39823 ft 365 kts 250°
2026-05-04 13:34 35.61725 -113.20521 39820 ft 364 kts 250°
2026-05-04 13:35 35.58840 -113.29147 39808 ft 364 kts 250°
2026-05-04 13:36 35.56904 -113.34923 39806 ft 364 kts 250°
2026-05-04 13:36 35.54966 -113.40697 39792 ft 365 kts 250°
2026-05-04 13:37 35.53042 -113.46429 39790 ft 365 kts 249°
2026-05-04 13:37 35.51098 -113.52200 39782 ft 365 kts 249°
2026-05-04 13:38 35.49151 -113.57970 39787 ft 365 kts 249°
2026-05-04 13:38 35.47197 -113.63749 39792 ft 365 kts 249°
2026-05-04 13:39 35.45245 -113.69516 39820 ft 366 kts 249°
2026-05-04 13:39 35.43288 -113.75284 39853 ft 365 kts 249°
2026-05-04 13:40 35.41342 -113.81013 39870 ft 365 kts 249°
2026-05-04 13:40 35.39382 -113.86769 39899 ft 365 kts 249°
2026-05-04 13:41 35.37429 -113.92493 39916 ft 365 kts 249°
2026-05-04 13:41 35.35465 -113.98238 39920 ft 365 kts 249°
2026-05-04 13:42 35.32507 -114.06873 39912 ft 365 kts 249°
2026-05-04 13:42 35.30547 -114.12584 39882 ft 365 kts 249°
2026-05-04 13:43 35.28571 -114.18330 39861 ft 365 kts 249°
2026-05-04 13:43 35.26596 -114.24058 39831 ft 365 kts 249°
2026-05-04 13:44 35.24617 -114.29790 39806 ft 365 kts 249°
2026-05-04 13:44 35.22648 -114.35484 39773 ft 365 kts 249°
2026-05-04 13:45 35.20667 -114.41208 39771 ft 364 kts 248°
2026-05-04 13:45 35.18678 -114.46941 39769 ft 364 kts 248°
2026-05-04 13:46 35.16702 -114.52622 39781 ft 364 kts 248°
2026-05-04 13:46 35.14709 -114.58343 39865 ft 365 kts 248°
2026-05-04 13:47 35.12729 -114.64020 39870 ft 364 kts 248°
2026-05-04 13:47 35.10747 -114.69729 39855 ft 364 kts 248°
2026-05-04 13:48 35.08761 -114.75445 39846 ft 365 kts 248°
2026-05-04 13:48 35.06773 -114.81151 39840 ft 364 kts 248°
2026-05-04 13:49 35.04798 -114.86813 39812 ft 365 kts 248°
2026-05-04 13:49 35.02619 -114.92467 39810 ft 367 kts 244°
2026-05-04 13:50 35.00237 -114.97987 39805 ft 366 kts 244°
2026-05-04 13:50 34.97866 -115.03495 39834 ft 365 kts 244°
2026-05-04 13:51 34.95491 -115.08982 39830 ft 365 kts 244°
2026-05-04 13:51 34.93115 -115.14454 39849 ft 365 kts 244°
2026-05-04 13:52 34.89559 -115.22627 39850 ft 365 kts 244°
2026-05-04 13:53 34.87175 -115.28094 39866 ft 365 kts 244°
2026-05-04 13:53 34.84788 -115.33563 39862 ft 365 kts 244°
2026-05-04 13:54 34.81210 -115.41739 39878 ft 364 kts 244°
2026-05-04 13:55 34.77874 -115.50045 39876 ft 363 kts 247°
2026-05-04 13:55 34.74767 -115.58442 39882 ft 363 kts 246°
2026-05-04 13:56 34.73040 -115.63116 39883 ft 364 kts 246°
2026-05-04 13:57 34.69930 -115.71544 39892 ft 364 kts 246°
2026-05-04 13:58 34.65778 -115.82759 39904 ft 364 kts 246°
2026-05-04 13:58 34.62650 -115.91192 39904 ft 364 kts 246°
2026-05-04 13:59 34.60578 -115.96817 39911 ft 364 kts 246°
2026-05-04 14:00 34.57475 -116.05224 39907 ft 364 kts 246°
2026-05-04 14:00 34.54360 -116.13636 39904 ft 364 kts 246°
2026-05-04 14:01 34.52235 -116.19363 39884 ft 364 kts 246°
2026-05-04 14:02 34.49131 -116.27719 39820 ft 354 kts 245°
2026-05-04 14:02 34.48142 -116.30377 39269 ft 347 kts 246°
2026-05-04 14:02 34.47143 -116.33048 37943 ft 349 kts 246°
2026-05-04 14:02 34.46138 -116.35758 36367 ft 354 kts 245°
2026-05-04 14:03 34.45121 -116.38504 34803 ft 360 kts 244°
2026-05-04 14:03 34.44079 -116.41306 33165 ft 368 kts 244°
2026-05-04 14:03 34.43023 -116.44128 32256 ft 369 kts 243°
2026-05-04 14:03 34.41946 -116.46987 31755 ft 375 kts 243°
2026-05-04 14:04 34.39636 -116.52635 30236 ft 375 kts 241°
2026-05-04 14:04 34.38475 -116.55470 29283 ft 375 kts 241°
2026-05-04 14:04 34.37311 -116.58304 28358 ft 373 kts 241°
2026-05-04 14:05 34.35018 -116.63865 26730 ft 371 kts 241°
2026-05-04 14:05 34.33845 -116.66698 26297 ft 377 kts 242°
2026-05-04 14:05 34.32687 -116.69534 25774 ft 373 kts 242°
2026-05-04 14:06 34.31554 -116.72352 25215 ft 369 kts 242°
2026-05-04 14:06 34.30437 -116.75136 24679 ft 365 kts 242°
2026-05-04 14:06 34.29349 -116.77843 24148 ft 360 kts 242°
2026-05-04 14:06 34.28217 -116.80657 23607 ft 356 kts 242°
2026-05-04 14:07 34.27133 -116.83353 23116 ft 355 kts 242°
2026-05-04 14:07 34.26056 -116.86031 22494 ft 353 kts 243°
2026-05-04 14:07 34.24838 -116.89050 21875 ft 350 kts 243°
2026-05-04 14:07 34.23748 -116.91749 21351 ft 347 kts 243°
2026-05-04 14:08 34.22693 -116.94358 20859 ft 344 kts 243°
2026-05-04 14:08 34.21697 -116.96991 20386 ft 342 kts 245°
2026-05-04 14:08 34.20807 -116.99655 19911 ft 340 kts 247°
2026-05-04 14:08 34.20020 -117.02353 19452 ft 340 kts 249°
2026-05-04 14:09 34.18552 -117.07745 18530 ft 338 kts 250°
2026-05-04 14:09 34.17817 -117.10453 18052 ft 338 kts 250°
2026-05-04 14:10 34.16357 -117.15839 17130 ft 336 kts 250°
2026-05-04 14:10 34.15623 -117.18515 16693 ft 335 kts 250°
2026-05-04 14:10 34.14878 -117.21220 16326 ft 334 kts 250°
2026-05-04 14:10 34.14146 -117.23881 15894 ft 333 kts 250°
2026-05-04 14:11 34.13414 -117.26540 15460 ft 332 kts 250°
2026-05-04 14:11 34.11962 -117.31809 14515 ft 332 kts 250°
2026-05-04 14:11 34.11237 -117.34437 14171 ft 325 kts 250°
2026-05-04 14:12 34.10535 -117.36981 14078 ft 310 kts 250°
2026-05-04 14:12 34.09904 -117.39420 13849 ft 301 kts 251°
2026-05-04 14:12 34.08733 -117.44148 13173 ft 288 kts 251°
2026-05-04 14:13 34.08160 -117.46448 12868 ft 282 kts 251°
2026-05-04 14:13 34.07600 -117.48691 12637 ft 274 kts 252°
2026-05-04 14:13 34.07053 -117.50868 12365 ft 269 kts 251°
2026-05-04 14:13 34.06502 -117.53026 11989 ft 268 kts 251°
2026-05-04 14:14 34.05953 -117.55174 11627 ft 267 kts 251°
2026-05-04 14:14 34.04858 -117.59455 10899 ft 266 kts 252°
2026-05-04 14:14 34.04316 -117.61570 10536 ft 267 kts 252°
2026-05-04 14:15 34.03228 -117.65819 10080 ft 255 kts 252°
2026-05-04 14:15 34.02307 -117.69706 10069 ft 226 kts 257°
2026-05-04 14:16 34.01852 -117.73355 9616 ft 220 kts 262°
2026-05-04 14:16 34.01674 -117.75183 9345 ft 218 kts 262°
2026-05-04 14:17 34.01326 -117.78791 8830 ft 214 kts 262°
2026-05-04 14:17 34.01153 -117.80565 8579 ft 212 kts 262°
2026-05-04 14:17 34.00813 -117.84060 8099 ft 207 kts 262°
2026-05-04 14:18 34.00645 -117.85783 7849 ft 206 kts 262°
2026-05-04 14:18 34.00312 -117.89172 7379 ft 203 kts 263°
2026-05-04 14:19 33.99978 -117.92573 6846 ft 204 kts 263°
2026-05-04 14:19 33.99845 -117.94275 6616 ft 202 kts 265°
2026-05-04 14:19 33.99725 -117.95955 6436 ft 198 kts 264°
2026-05-04 14:19 33.99598 -117.97587 6286 ft 190 kts 264°
2026-05-04 14:20 33.99465 -117.99148 6089 ft 184 kts 264°
2026-05-04 14:20 33.99326 -118.00664 5890 ft 179 kts 263°
2026-05-04 14:20 33.99184 -118.02125 5687 ft 174 kts 263°
2026-05-04 14:21 33.98897 -118.04932 5338 ft 163 kts 262°
2026-05-04 14:21 33.98753 -118.06290 5183 ft 162 kts 262°
2026-05-04 14:21 33.98606 -118.07648 5019 ft 161 kts 263°
2026-05-04 14:21 33.98462 -118.08981 4851 ft 160 kts 263°
2026-05-04 14:22 33.98319 -118.10310 4667 ft 159 kts 263°
2026-05-04 14:22 33.98176 -118.11636 4495 ft 159 kts 263°
2026-05-04 14:22 33.98036 -118.12946 4384 ft 159 kts 263°
2026-05-04 14:22 33.97894 -118.14273 4293 ft 160 kts 263°
2026-05-04 14:23 33.97612 -118.16937 3979 ft 160 kts 263°
2026-05-04 14:23 33.97471 -118.18276 3764 ft 160 kts 263°
2026-05-04 14:23 33.97331 -118.19614 3546 ft 161 kts 263°
2026-05-04 14:24 33.97189 -118.20971 3332 ft 161 kts 263°
2026-05-04 14:24 33.97050 -118.22310 3109 ft 161 kts 263°
2026-05-04 14:24 33.96911 -118.23650 2890 ft 158 kts 263°
2026-05-04 14:24 33.96780 -118.24919 2656 ft 151 kts 263°
2026-05-04 14:25 33.96652 -118.26154 2407 ft 145 kts 262°
2026-05-04 14:25 33.96412 -118.28485 1986 ft 137 kts 262°
2026-05-04 14:25 33.96295 -118.29624 1870 ft 137 kts 262°
2026-05-04 14:26 33.96171 -118.30767 1748 ft 137 kts 262°
2026-05-04 14:26 33.96051 -118.31908 1563 ft 137 kts 262°
2026-05-04 14:26 33.95937 -118.33048 1382 ft 136 kts 263°
2026-05-04 14:26 33.95832 -118.34190 1128 ft 135 kts 263°
2026-05-04 14:27 33.95725 -118.35316 959 ft 135 kts 262°
2026-05-04 14:27 33.95598 -118.36440 776 ft 133 kts 261°
2026-05-04 14:27 33.95472 -118.37544 592 ft 130 kts 263°
2026-05-04 14:27 33.95364 -118.38628 385 ft 129 kts 263°
2026-05-04 14:28 33.95256 -118.39737 196 ft 128 kts 263°
2026-05-04 14:28 33.95156 -118.40800 105 ft 118 kts 264°
2026-05-04 14:28 33.95078 -118.41528 105 ft 55 kts 262°
2026-05-04 14:28 33.95025 -118.41989 103 ft 45 kts 257°
2026-05-04 14:29 33.94784 -118.42280 106 ft 19 kts 178°
2026-05-04 14:29 33.94631 -118.42244 104 ft 9 kts 132°
2026-05-04 14:30 33.94613 -118.42198 104 ft 12 kts 104°
2026-05-04 14:30 33.94610 -118.42155 102 ft 0 kts 88°
2026-05-04 14:30 33.94617 -118.42087 103 ft 9 kts 82°
2026-05-04 14:31 33.94628 -118.41988 104 ft 11 kts 84°
2026-05-04 14:31 33.94628 -118.41980 104 ft 1 kts 86°
2026-05-04 14:32 33.94592 -118.41922 101 ft 9 kts 162°
2026-05-04 14:32 33.94512 -118.41908 102 ft 14 kts 172°
2026-05-04 14:32 33.94396 -118.41890 102 ft 20 kts 173°
2026-05-04 14:32 33.94254 -118.41871 102 ft 15 kts 174°
2026-05-04 14:33 33.94131 -118.41851 103 ft 20 kts 175°
2026-05-04 14:33 33.93972 -118.41829 103 ft 24 kts 173°
2026-05-04 14:33 33.93846 -118.41810 103 ft 18 kts 173°
2026-05-04 14:33 33.93769 -118.41872 102 ft 15 kts 263°
2026-05-04 14:34 33.93754 -118.42021 105 ft 20 kts 264°
2026-05-04 14:34 33.93728 -118.42184 104 ft 15 kts 225°
2026-05-04 14:34 33.93646 -118.42282 103 ft 19 kts 267°
2026-05-04 14:34 33.93632 -118.42410 101 ft 15 kts 263°
2026-05-04 14:35 33.93618 -118.42553 101 ft 19 kts 267°
2026-05-04 14:35 33.93612 -118.42734 104 ft 24 kts 265°
2026-05-04 14:35 33.93593 -118.42931 103 ft 19 kts 262°
2026-05-04 14:35 33.93672 -118.43018 102 ft 16 kts 353°
2026-05-04 14:36 33.93768 -118.43034 103 ft 6 kts 352°
2026-05-04 14:36 33.93808 -118.43062 103 ft 8 kts 283°
2026-05-04 14:36 33.93802 -118.43146 104 ft 0 kts 263°
2026-05-04 14:36 33.93801 -118.43155 104 ft 3 kts 263°
2026-05-04 14:37 33.93800 -118.43166 104 ft 2 kts 263°
2026-05-04 14:37 33.93799 -118.43174 104 ft 0 kts 263°